Total_Precipitation_Accumulation
0.08 0.16 0.35 0.41 0.40 0.36 0.36 0.32 0.30 0.29 0.29 0.31 0.34 0.36 0.34 0.33 0.32 0.31 0.32 0.33 0.39 0.44 0.51 0.55 0.52 0.48 0.41 0.34 0.22 0.14 0.12 0.14 0.10 0.08 0.07 0.08 0.11 0.12 0.10 0.09 0.10 0.16 0.21
0.08 0.15 0.31 0.41 0.45 0.44 0.41 0.36 0.31 0.28 0.28 0.34 0.39 0.37 0.36 0.35 0.35 0.34 0.41 0.41 0.43 0.45 0.49 0.54 0.53 0.42 0.33 0.25 0.16 0.12 0.11 0.06 0.03 0.03 0.01 0.02 0.05 0.07 0.08 0.07 0.09 0.15 0.20
0.10 0.17 0.30 0.41 0.49 0.48 0.43 0.37 0.30 0.28 0.30 0.35 0.41 0.40 0.39 0.39 0.39 0.38 0.40 0.42 0.44 0.46 0.43 0.40 0.39 0.30 0.22 0.15 0.11 0.09 0.08 0.05 0.03 0.02 0.02 0.04 0.06 0.09 0.09 0.09 0.13 0.18 0.20
0.15 0.20 0.30 0.45 0.58 0.55 0.49 0.41 0.36 0.35 0.37 0.40 0.45 0.45 0.47 0.45 0.44 0.45 0.40 0.39 0.41 0.38 0.34 0.30 0.25 0.17 0.13 0.11 0.09 0.08 0.06 0.04 0.03 0.03 0.04 0.05 0.07 0.14 0.14 0.14 0.16 0.18 0.17
0.21 0.27 0.37 0.50 0.67 0.67 0.57 0.47 0.41 0.43 0.46 0.49 0.52 0.53 0.56 0.50 0.49 0.49 0.43 0.38 0.37 0.29 0.26 0.23 0.18 0.11 0.08 0.08 0.08 0.08 0.07 0.05 0.03 0.03 0.04 0.07 0.11 0.18 0.17 0.16 0.16 0.17 0.17
0.29 0.37 0.48 0.59 0.75 0.83 0.69 0.58 0.49 0.49 0.53 0.59 0.63 0.64 0.63 0.60 0.58 0.55 0.43 0.37 0.31 0.25 0.20 0.19 0.17 0.11 0.07 0.07 0.06 0.06 0.08 0.07 0.04 0.03 0.04 0.06 0.11 0.19 0.21 0.19 0.19 0.20 0.21
0.33 0.49 0.64 0.76 0.87 1.01 0.90 0.76 0.67 0.63 0.64 0.67 0.70 0.68 0.69 0.70 0.68 0.63 0.45 0.34 0.28 0.24 0.19 0.16 0.16 0.12 0.09 0.08 0.07 0.06 0.07 0.07 0.06 0.05 0.05 0.06 0.13 0.23 0.24 0.23 0.23 0.22 0.21
0.44 0.57 0.81 1.05 1.09 1.20 1.17 0.95 0.82 0.75 0.74 0.77 0.76 0.73 0.74 0.75 0.74 0.70 0.50 0.34 0.27 0.25 0.22 0.18 0.18 0.15 0.11 0.10 0.09 0.08 0.08 0.06 0.04 0.05 0.05 0.06 0.11 0.18 0.18 0.17 0.18 0.20 0.21
0.71 0.71 0.84 1.08 1.22 1.31 1.35 1.10 0.99 0.88 0.80 0.81 0.85 0.84 0.74 0.69 0.70 0.66 0.50 0.37 0.31 0.31 0.29 0.25 0.22 0.21 0.15 0.13 0.11 0.09 0.06 0.05 0.04 0.05 0.04 0.05 0.09 0.14 0.15 0.16 0.20 0.22 0.25
1.10 1.02 0.97 1.09 1.20 1.35 1.43 1.15 1.00 0.92 0.86 0.85 0.85 0.76 0.63 0.59 0.62 0.59 0.45 0.36 0.32 0.34 0.33 0.29 0.25 0.23 0.20 0.16 0.13 0.09 0.06 0.05 0.05 0.05 0.05 0.06 0.10 0.15 0.18 0.20 0.22 0.24 0.27
1.41 1.38 1.28 1.24 1.19 1.24 1.37 1.21 1.09 0.99 0.89 0.84 0.82 0.72 0.64 0.60 0.60 0.53 0.39 0.31 0.31 0.33 0.34 0.31 0.27 0.26 0.19 0.14 0.12 0.10 0.09 0.08 0.08 0.08 0.09 0.08 0.10 0.16 0.22 0.26 0.26 0.26 0.28
1.49 1.44 1.44 1.41 1.33 1.32 1.33 1.29 1.22 1.08 0.98 0.86 0.77 0.70 0.68 0.63 0.58 0.50 0.42 0.35 0.35 0.35 0.39 0.37 0.32 0.28 0.20 0.15 0.14 0.13 0.12 0.09 0.11 0.11 0.10 0.09 0.13 0.21 0.28 0.31 0.26 0.24 0.25
1.75 1.58 1.51 1.51 1.55 1.46 1.40 1.31 1.23 1.04 0.98 0.96 0.87 0.75 0.71 0.75 0.71 0.66 0.53 0.43 0.41 0.38 0.39 0.38 0.36 0.29 0.21 0.17 0.16 0.12 0.13 0.14 0.13 0.12 0.11 0.11 0.16 0.26 0.30 0.30 0.26 0.25 0.26
2.10 1.91 1.78 1.78 1.76 1.63 1.53 1.43 1.31 1.08 0.93 0.92 0.91 0.88 0.81 0.76 0.68 0.64 0.57 0.44 0.41 0.40 0.40 0.40 0.34 0.31 0.29 0.23 0.19 0.18 0.16 0.16 0.16 0.16 0.16 0.15 0.15 0.22 0.30 0.34 0.32 0.31 0.31
2.27 2.23 2.09 2.03 2.02 1.85 1.73 1.60 1.36 1.20 0.99 0.89 0.88 0.91 0.84 0.74 0.67 0.62 0.57 0.52 0.44 0.42 0.41 0.43 0.39 0.37 0.36 0.33 0.28 0.22 0.21 0.19 0.18 0.19 0.21 0.22 0.18 0.20 0.29 0.38 0.43 0.45 0.48
2.28 2.39 2.37 2.31 2.24 2.07 1.85 1.68 1.45 1.33 1.15 1.04 0.97 0.92 0.86 0.81 0.77 0.71 0.61 0.54 0.48 0.45 0.45 0.47 0.48 0.45 0.40 0.37 0.32 0.28 0.24 0.21 0.18 0.17 0.18 0.20 0.20 0.21 0.26 0.36 0.46 0.57 0.64
2.26 2.46 2.54 2.57 2.66 2.40 2.14 1.91 1.65 1.47 1.35 1.24 1.10 0.98 0.88 0.83 0.86 0.84 0.76 0.62 0.53 0.54 0.52 0.53 0.55 0.57 0.52 0.44 0.36 0.33 0.30 0.27 0.22 0.19 0.19 0.17 0.16 0.16 0.20 0.32 0.43 0.52 0.60
2.27 2.37 2.48 2.44 2.62 2.67 2.50 2.22 1.87 1.65 1.48 1.38 1.29 1.14 1.04 0.92 0.92 0.93 0.88 0.83 0.72 0.66 0.63 0.62 0.59 0.55 0.52 0.46 0.40 0.34 0.34 0.33 0.29 0.28 0.27 0.22 0.17 0.13 0.15 0.23 0.31 0.38 0.46
2.29 2.35 2.48 2.44 2.48 2.58 2.64 2.49 2.22 1.98 1.74 1.58 1.49 1.34 1.23 1.17 1.11 1.08 0.98 0.95 0.97 0.87 0.76 0.71 0.68 0.62 0.58 0.54 0.49 0.46 0.42 0.37 0.33 0.31 0.28 0.23 0.21 0.20 0.18 0.19 0.22 0.27 0.34
2.29 2.46 2.56 2.67 2.67 2.77 2.93 2.82 2.57 2.35 2.13 1.94 1.73 1.64 1.53 1.40 1.32 1.22 1.15 1.10 1.11 1.04 0.91 0.82 0.75 0.71 0.65 0.64 0.63 0.55 0.48 0.40 0.38 0.36 0.32 0.28 0.26 0.27 0.29 0.29 0.29 0.29 0.32
1.99 2.23 2.29 2.51 2.68 2.81 2.82 2.67 2.48 2.31 2.18 2.05 1.94 1.86 1.74 1.63 1.54 1.38 1.24 1.20 1.21 1.15 1.04 0.97 0.92 0.82 0.78 0.80 0.77 0.62 0.51 0.44 0.37 0.33 0.35 0.36 0.33 0.30 0.31 0.35 0.38 0.36 0.31
1.61 1.78 1.89 2.05 2.27 2.47 2.54 2.44 2.46 2.50 2.35 2.15 2.03 1.93 1.84 1.76 1.67 1.53 1.37 1.29 1.26 1.22 1.12 1.06 1.10 1.07 0.98 0.96 0.94 0.90 0.74 0.57 0.43 0.37 0.37 0.36 0.35 0.35 0.33 0.32 0.33 0.36 0.37
1.30 1.48 1.58 1.69 1.84 1.94 2.26 2.46 2.47 2.54 2.47 2.20 1.96 1.80 1.84 1.91 1.87 1.71 1.55 1.48 1.42 1.39 1.31 1.22 1.19 1.17 1.16 1.13 1.14 1.21 1.03 0.77 0.55 0.43 0.40 0.39 0.39 0.38 0.37 0.37 0.36 0.37 0.39
1.04 1.22 1.38 1.51 1.61 1.65 1.89 2.13 2.14 2.04 1.99 1.91 1.86 1.89 1.90 1.93 1.97 1.94 1.82 1.68 1.58 1.52 1.46 1.53 1.55 1.45 1.37 1.24 1.17 1.12 1.08 0.91 0.85 0.65 0.47 0.44 0.43 0.41 0.40 0.38 0.38 0.39 0.39
0.85 0.94 1.11 1.35 1.43 1.46 1.55 1.72 1.93 1.96 1.90 1.93 1.95 1.93 1.86 1.77 1.83 1.91 1.90 1.79 1.62 1.49 1.41 1.45 1.54 1.59 1.49 1.38 1.29 1.21 1.16 1.03 0.93 0.91 0.69 0.52 0.49 0.45 0.45 0.46 0.48 0.51 0.53
0.72 0.72 0.85 1.02 1.26 1.37 1.42 1.50 1.64 1.72 1.69 1.71 1.80 1.85 1.88 1.78 1.68 1.71 1.74 1.67 1.63 1.54 1.44 1.44 1.52 1.59 1.60 1.54 1.43 1.31 1.24 1.16 1.00 1.01 0.95 0.74 0.66 0.58 0.57 0.59 0.63 0.66 0.67